Time,TemperatureF,DewpointF,PressureIn,WindDirection,WindDirectionDegrees,WindSpeedMPH,WindSpeedGustMPH,Humidity,HourlyPrecipIn,Conditions,Clouds,dailyrainin,SoftwareType,DateUTC
2013-07-23 00:05:00,64.8,58.1,29.54,West,270,2.2,-999.0,79,-99.99,,,0.00,Acu-Link.com,2013-07-23 04:05:00,
2013-07-23 00:20:00,63.9,58.0,29.54,WSW,247,1.1,-999.0,81,-99.99,,,0.00,Acu-Link.com,2013-07-23 04:20:00,
2013-07-23 00:36:00,63.1,57.2,29.54,WSW,247,2.7,-999.0,81,-99.99,,,0.00,Acu-Link.com,2013-07-23 04:36:00,
2013-07-23 00:51:00,63.7,57.1,29.54,WSW,247,1.7,-999.0,79,-99.99,,,0.00,Acu-Link.com,2013-07-23 04:51:00,
2013-07-23 01:06:00,62.4,56.1,29.55,West,270,2.2,-999.0,80,-99.99,,,0.00,Acu-Link.com,2013-07-23 05:06:00,
2013-07-23 01:22:00,62.2,56.3,29.54,South,180,3.2,-999.0,81,-99.99,,,0.00,Acu-Link.com,2013-07-23 05:22:00,
2013-07-23 01:37:00,61.2,55.7,29.54,SW,225,1.7,-999.0,82,-99.99,,,0.00,Acu-Link.com,2013-07-23 05:37:00,
2013-07-23 01:52:00,60.6,55.1,29.54,SW,225,1.7,-999.0,82,-99.99,,,0.00,Acu-Link.com,2013-07-23 05:52:00,
2013-07-23 02:07:00,59.0,55.4,29.54,SW,225,2.7,-999.0,88,-99.99,,,0.00,Acu-Link.com,2013-07-23 06:07:00,
2013-07-23 02:23:00,60.3,54.4,29.54,West,270,1.7,-999.0,81,-99.99,,,0.00,Acu-Link.com,2013-07-23 06:23:00,
2013-07-23 02:38:00,60.8,54.2,29.54,WNW,292,3.7,-999.0,79,-99.99,,,0.00,Acu-Link.com,2013-07-23 06:38:00,
2013-07-23 02:53:00,60.3,53.8,29.54,West,270,6.3,-999.0,79,-99.99,,,0.00,Acu-Link.com,2013-07-23 06:53:00,
2013-07-23 03:08:00,60.1,53.6,29.55,West,270,4.2,-999.0,79,-99.99,,,0.00,Acu-Link.com,2013-07-23 07:08:00,
2013-07-23 03:24:00,59.9,53.4,29.55,WSW,247,3.7,-999.0,79,-99.99,,,0.00,Acu-Link.com,2013-07-23 07:24:00,
2013-07-23 03:39:00,60.4,53.5,29.56,WNW,292,4.7,-999.0,78,-99.99,,,0.00,Acu-Link.com,2013-07-23 07:39:00,
2013-07-23 03:54:00,60.3,53.4,29.56,WSW,247,2.2,-999.0,78,-99.99,,,0.00,Acu-Link.com,2013-07-23 07:54:00,
2013-07-23 04:10:00,60.3,53.1,29.56,WNW,292,5.8,-999.0,77,-99.99,,,0.00,Acu-Link.com,2013-07-23 08:10:00,
2013-07-23 04:25:00,60.1,52.9,29.56,West,270,4.2,-999.0,77,-99.99,,,0.00,Acu-Link.com,2013-07-23 08:25:00,
2013-07-23 04:40:00,60.1,52.9,29.57,West,270,4.2,-999.0,77,-99.99,,,0.00,Acu-Link.com,2013-07-23 08:40:00,
2013-07-23 04:56:00,59.2,52.3,29.57,WSW,247,5.3,-999.0,78,-99.99,,,0.00,Acu-Link.com,2013-07-23 08:56:00,
2013-07-23 05:11:00,58.8,52.0,29.58,West,270,2.7,-999.0,78,-99.99,,,0.00,Acu-Link.com,2013-07-23 09:11:00,
2013-07-23 05:26:00,58.8,51.6,29.60,WNW,292,4.2,-999.0,77,-99.99,,,0.00,Acu-Link.com,2013-07-23 09:26:00,
2013-07-23 05:41:00,57.6,51.5,29.60,West,270,3.2,-999.0,80,-99.99,,,0.00,Acu-Link.com,2013-07-23 09:41:00,
2013-07-23 05:57:00,57.2,50.7,29.61,WNW,292,2.2,-999.0,79,-99.99,,,0.00,Acu-Link.com,2013-07-23 09:57:00,
2013-07-23 06:12:00,57.2,50.1,29.62,WNW,292,9.9,-999.0,77,-99.99,,,0.00,Acu-Link.com,2013-07-23 10:12:00,
2013-07-23 06:27:00,57.2,49.3,29.62,NNW,337,9.4,-999.0,75,-99.99,,,0.00,Acu-Link.com,2013-07-23 10:27:00,
2013-07-23 06:42:00,57.7,49.5,29.62,NNW,337,11.9,-999.0,74,-99.99,,,0.00,Acu-Link.com,2013-07-23 10:42:00,
2013-07-23 06:57:00,58.1,50.2,29.63,NNW,337,13.5,-999.0,75,-99.99,,,0.00,Acu-Link.com,2013-07-23 10:57:00,
2013-07-23 07:12:00,58.5,50.6,29.63,NW,315,20.7,-999.0,75,-99.99,,,0.00,Acu-Link.com,2013-07-23 11:12:00,
2013-07-23 07:27:00,58.3,50.4,29.64,WNW,292,16.1,-999.0,75,-99.99,,,0.00,Acu-Link.com,2013-07-23 11:27:00,
2013-07-23 07:43:00,58.3,50.8,29.64,WNW,292,16.6,-999.0,76,-99.99,,,0.00,Acu-Link.com,2013-07-23 11:43:00,
2013-07-23 07:58:00,58.3,50.4,29.64,NW,315,18.1,-999.0,75,-99.99,,,0.00,Acu-Link.com,2013-07-23 11:58:00,
2013-07-23 08:13:00,58.6,50.0,29.65,NW,315,20.7,-999.0,73,-99.99,,,0.00,Acu-Link.com,2013-07-23 12:13:00,
2013-07-23 08:28:00,58.3,50.4,29.66,NW,315,26.4,-999.0,75,-99.99,,,0.00,Acu-Link.com,2013-07-23 12:28:00,
2013-07-23 08:44:00,57.4,50.9,29.66,South,180,23.3,-999.0,79,-99.99,,,0.02,Acu-Link.com,2013-07-23 12:44:00,
2013-07-23 08:59:00,57.0,51.2,29.67,South,180,27.9,-999.0,81,-99.99,,,0.02,Acu-Link.com,2013-07-23 12:59:00,
2013-07-23 09:14:00,56.1,50.0,29.69,South,180,27.9,-999.0,80,-99.99,,,0.12,Acu-Link.com,2013-07-23 13:14:00,
2013-07-23 09:30:00,55.0,49.9,29.69,SSW,202,24.8,-999.0,83,-99.99,,,0.14,Acu-Link.com,2013-07-23 13:30:00,
2013-07-23 09:45:00,55.0,48.6,29.70,South,180,23.3,-999.0,79,-99.99,,,0.17,Acu-Link.com,2013-07-23 13:45:00,
2013-07-23 10:00:00,54.9,48.5,29.71,South,180,28.9,-999.0,79,-99.99,,,0.17,Acu-Link.com,2013-07-23 14:00:00,
2013-07-23 10:16:00,55.0,48.3,29.72,South,180,32.0,-999.0,78,-99.99,,,0.24,Acu-Link.com,2013-07-23 14:16:00,
2013-07-23 10:31:00,55.0,48.6,29.73,South,180,31.0,-999.0,79,-99.99,,,0.27,Acu-Link.com,2013-07-23 14:31:00,
2013-07-23 10:46:00,54.9,48.2,29.74,SSE,157,26.9,-999.0,78,-99.99,,,0.35,Acu-Link.com,2013-07-23 14:46:00,
2013-07-23 11:02:00,55.2,47.8,29.76,South,180,24.3,-999.0,76,-99.99,,,0.37,Acu-Link.com,2013-07-23 15:02:00,
2013-07-23 11:17:00,55.2,47.8,29.77,South,180,29.4,-999.0,76,-99.99,,,0.38,Acu-Link.com,2013-07-23 15:17:00,
2013-07-23 11:32:00,55.0,48.6,29.79,South,180,22.7,-999.0,79,-99.99,,,0.38,Acu-Link.com,2013-07-23 15:32:00,
2013-07-23 11:47:00,55.0,48.6,29.79,South,180,21.7,-999.0,79,-99.99,,,0.38,Acu-Link.com,2013-07-23 15:47:00,
2013-07-23 12:03:00,55.2,48.8,29.80,South,180,18.1,-999.0,79,-99.99,,,0.38,Acu-Link.com,2013-07-23 16:03:00,
2013-07-23 12:18:00,55.6,49.2,29.80,South,180,16.6,-999.0,79,-99.99,,,0.38,Acu-Link.com,2013-07-23 16:18:00,
2013-07-23 12:33:00,55.9,48.8,29.80,SSE,157,24.8,-999.0,77,-99.99,,,0.38,Acu-Link.com,2013-07-23 16:33:00,
2013-07-23 12:48:00,56.3,48.8,29.81,South,180,21.2,-999.0,76,-99.99,,,0.38,Acu-Link.com,2013-07-23 16:48:00,
2013-07-23 13:03:00,56.7,49.6,29.81,South,180,23.3,-999.0,77,-99.99,,,0.38,Acu-Link.com,2013-07-23 17:03:00,
2013-07-23 13:19:00,56.5,49.0,29.82,South,180,23.3,-999.0,76,-99.99,,,0.38,Acu-Link.com,2013-07-23 17:19:00,
2013-07-23 13:34:00,57.0,49.2,29.81,South,180,19.1,-999.0,75,-99.99,,,0.38,Acu-Link.com,2013-07-23 17:34:00,
2013-07-23 13:49:00,57.0,49.2,29.82,South,180,19.1,-999.0,75,-99.99,,,0.38,Acu-Link.com,2013-07-23 17:49:00,
2013-07-23 14:04:00,57.2,49.0,29.82,South,180,18.6,-999.0,74,-99.99,,,0.38,Acu-Link.com,2013-07-23 18:04:00,
2013-07-23 14:19:00,57.4,49.5,29.82,South,180,17.6,-999.0,75,-99.99,,,0.38,Acu-Link.com,2013-07-23 18:19:00,
2013-07-23 14:35:00,57.6,50.1,29.82,South,180,20.2,-999.0,76,-99.99,,,0.38,Acu-Link.com,2013-07-23 18:35:00,
2013-07-23 14:50:00,57.7,50.2,29.83,South,180,16.6,-999.0,76,-99.99,,,0.38,Acu-Link.com,2013-07-23 18:50:00,
2013-07-23 15:05:00,58.1,49.9,29.83,South,180,20.2,-999.0,74,-99.99,,,0.38,Acu-Link.com,2013-07-23 19:05:00,
2013-07-23 15:20:00,58.5,49.1,29.83,South,180,19.1,-999.0,71,-99.99,,,0.38,Acu-Link.com,2013-07-23 19:20:00,
2013-07-23 15:51:00,58.8,49.4,29.83,South,180,19.1,-999.0,71,-99.99,,,0.38,Acu-Link.com,2013-07-23 19:51:00,
2013-07-23 16:06:00,59.0,50.4,29.84,South,180,15.0,-999.0,73,-99.99,,,0.38,Acu-Link.com,2013-07-23 20:06:00,
2013-07-23 16:21:00,59.2,50.5,29.84,South,180,15.5,-999.0,73,-99.99,,,0.38,Acu-Link.com,2013-07-23 20:21:00,
2013-07-23 16:36:00,59.5,50.8,29.84,South,180,14.0,-999.0,73,-99.99,,,0.38,Acu-Link.com,2013-07-23 20:36:00,
2013-07-23 16:51:00,59.7,50.3,29.84,South,180,14.5,-999.0,71,-99.99,,,0.38,Acu-Link.com,2013-07-23 20:51:00,
2013-07-23 17:06:00,59.9,50.5,29.83,South,180,14.5,-999.0,71,-99.99,,,0.38,Acu-Link.com,2013-07-23 21:06:00,
2013-07-23 17:36:00,60.3,50.5,29.83,South,180,13.5,-999.0,70,-99.99,,,0.38,Acu-Link.com,2013-07-23 21:36:00,
2013-07-23 17:51:00,60.4,51.7,29.83,South,180,11.4,-999.0,73,-99.99,,,0.38,Acu-Link.com,2013-07-23 21:51:00,
2013-07-23 18:06:00,60.4,51.3,29.83,South,180,12.5,-999.0,72,-99.99,,,0.38,Acu-Link.com,2013-07-23 22:06:00,
2013-07-23 18:22:00,60.6,51.9,29.83,South,180,12.5,-999.0,73,-99.99,,,0.38,Acu-Link.com,2013-07-23 22:22:00,
2013-07-23 19:07:00,61.5,52.0,29.82,South,180,13.0,-999.0,71,-99.99,,,0.38,Acu-Link.com,2013-07-23 23:07:00,
2013-07-23 19:22:00,61.3,52.2,29.82,South,180,14.0,-999.0,72,-99.99,,,0.38,Acu-Link.com,2013-07-23 23:22:00,
2013-07-23 19:37:00,62.1,51.4,29.83,SSE,157,14.5,-999.0,68,-99.99,,,0.38,Acu-Link.com,2013-07-23 23:37:00,
2013-07-23 19:52:00,61.9,52.0,29.83,South,180,8.9,-999.0,70,-99.99,,,0.38,Acu-Link.com,2013-07-23 23:52:00,
2013-07-23 20:07:00,61.9,51.6,29.83,South,180,8.3,-999.0,69,-99.99,,,0.38,Acu-Link.com,2013-07-24 00:07:00,
2013-07-23 20:23:00,61.0,51.9,29.83,South,180,11.4,-999.0,72,-99.99,,,0.38,Acu-Link.com,2013-07-24 00:23:00,
2013-07-23 20:53:00,59.0,52.8,29.84,South,180,6.8,-999.0,80,-99.99,,,0.38,Acu-Link.com,2013-07-24 00:53:00,
2013-07-23 21:23:00,58.6,52.4,29.84,South,180,5.8,-999.0,80,-99.99,,,0.38,Acu-Link.com,2013-07-24 01:23:00,
2013-07-23 21:39:00,58.8,53.0,29.84,South,180,4.7,-999.0,81,-99.99,,,0.38,Acu-Link.com,2013-07-24 01:39:00,
2013-07-23 21:54:00,57.2,51.4,29.84,South,180,2.2,-999.0,81,-99.99,,,0.38,Acu-Link.com,2013-07-24 01:54:00,
2013-07-23 22:25:00,55.6,48.8,29.85,ESE,112,5.3,-999.0,78,-99.99,,,0.38,Acu-Link.com,2013-07-24 02:25:00,
2013-07-23 22:40:00,56.8,50.0,29.85,ESE,112,3.2,-999.0,78,-99.99,,,0.38,Acu-Link.com,2013-07-24 02:40:00,
2013-07-23 22:55:00,57.9,48.9,29.86,East,90,6.3,-999.0,72,-99.99,,,0.38,Acu-Link.com,2013-07-24 02:55:00,
2013-07-23 23:56:00,58.5,48.0,29.87,SE,135,7.3,-999.0,68,-99.99,,,0.38,Acu-Link.com,2013-07-24 03:56:00,